Location: Moy Burn
(57.3833°N, 4.0667°W)
Time: 10:15:26
(UTC+00:00)

Lacrosse 5 - Pass Details

Date: 08 August 2020
Orbit: 717 x 720 km, 57.0° (Epoch: 18 September)

Event Time Altitude Azimuth Distance (km) Brightness Sun altitude
Rises 23:16:31 0° 291° (WNW) 3,131 5.7 -15.6°
Reaches altitude 10° 23:19:18 10° 277° (W) 2,207 4.7 -15.7°
Maximum altitude 23:23:14 23° 226° (SW) 1,510 3.3 -15.8°
Enters shadow 23:24:41 20° 202° (SSW) 1,622 3.2 -15.9°
